Weather in Lisieux

France     49°09′06″N   0°13′42″E
temp.,
°C
wind,
m/s
gust,
m/s
humid.,
%
clouds,
%
prec.,
mm/h
press.,
hPa
HPBL,
m
29 june, wed
wed2923:00+15ssw335998 0.0 101639
02:00+13sw377186 0.0 1016134
05:00+11s3792100 0.0 1015114
08:00+14s597970 0.0 1014322
11:00+18ssw576583 0.0 1014943
14:00+16sw5888100 0.6 1014642
17:00+22s475095 0.3 10121985
20:00+18nw2361100 0.3 1012255
30 june, thu
thu3023:00+15s368494 0.1 1012119
02:00+12nw239496 0.1 101349
05:00+11sw1196100 0.0 101210
08:00+12s2490100 0.1 1013164
11:00+16ssw3466100 0.0 1013844
14:00+16w3377100 1.9 1013781
17:00+12wnw479589 4.1 1014318
20:00+14sw358440 5.4 1014421
1 july, fri
fri123:00+10sw38925 0.1 1016136
02:00+8sw35951 0.1 101788
05:00+8ssw36964 0.0 1018109
08:00+10sw49940 0.0 1019272
11:00+17wsw575841 0.1 10191448
14:00+19wnw565096 0.1 10201667
17:00+20nw455152 0.0 10201208
20:00+18nnw33528 0.0 1020602
2 july, sat
sat223:00+12nne11795 0.0 102210
02:00+10ese11833 0.0 102210
05:00+9ese22845 0.0 102115
08:00+14sse34695 0.0 1021157
11:00+22sw46415 0.0 10201345
14:00+24w46355 0.0 10191984
17:00+23nw66418 0.0 1019647
20:00+19nnw585428 0.0 1020466
3 july, sun
sun323:00+12n22890 0.0 102114
02:00+12nw229524 0.0 102117
05:00+11w22967 0.0 102139
08:00+13w358893 0.0 1022209
11:00+18wnw446167 0.0 1022856
14:00+20nw55480 0.0 10221039
17:00+21nw55460 0.0 1021971
20:00+17nnw57640 0.0 1021536